Home > Weather > Hamilton > Past weeks

Flag for Bermuda Past Weather in Hamilton, Bermuda — Yesterday and Last 2 Weeks

Now
84 °F

Partly sunny.


Feels Like: 91 °F
Forecast: 81 / 85 °F
Wind: 10 mph from Southwest

Location: Bermuda

Current Time: Jul 28, 2016 at 11:46:28 AM

Latest Report: Jul 28, 2016 at 10:55 AM


Visibility: N/A

Pressure: 30.04 "Hg

Humidity: 70%

Dew Point: 73 °F

Location of HamiltonLocation

Past Weather in Hamilton — Graph

°F

Hamilton Temperature Yesterday

Maximum temperature yesterday: 86 °F (at 1:55 PM)
Minimum temperature yesterday: 81 °F (at 12:55 AM)
Average temperature yesterday: 82 °F

High & Low Weather Summary for the Past Weeks

 TemperatureHumidityPressure
High88 °F (Jul 20, 2:55 PM)94% (Jul 21, 7:55 AM)30.30 "Hg (Jul 21, 7:55 AM)
Low70 °F (Jul 21, 7:55 AM)54% (Jul 13, 1:55 PM)30.01 "Hg (Jul 27, 3:55 AM)
Average81 °F76%30.15 "Hg
* Reported Jul 13 9:55 AM — Jul 28 9:55 AM, Hamilton, Weather by CustomWeather, © 2016

Note: Actual official high and low records may vary slightly from our data, if they occured in-between our weather recording intervals... More about our weather records

Advertising

Hamilton Weather History for the Previous 24 Hours

Scroll right to see more
 ConditionsComfort  
Time TempWeatherWind HumidityBarometerVisibility
9:55 AM
Thu, Jul 28
84 °FScattered showers. Broken clouds.9 mph74%30.04 "HgN/A
8:55 AM84 °FScattered showers. Partly sunny.9 mph74%30.04 "HgN/A
7:55 AM82 °FBroken clouds.8 mph74%30.04 "HgN/A
6:55 AM81 °FPassing clouds.8 mph79%30.01 "HgN/A
5:55 AM81 °FPassing clouds.8 mph79%30.01 "HgN/A
4:55 AM79 °FPassing clouds.12 mph84%30.01 "HgN/A
3:55 AM81 °FPartly cloudy.9 mph79%30.01 "HgN/A
2:55 AM81 °FPassing clouds.9 mph84%30.01 "HgN/A
1:55 AM81 °FPassing clouds.8 mph79%30.01 "HgN/A
12:55 AM81 °FPartly cloudy.7 mph79%30.01 "HgN/A
11:55 PM
Wed, Jul 27
82 °FScattered showers. Partly cloudy.10 mph74%30.01 "HgN/A
10:55 PM82 °FScattered showers. Passing clouds.10 mph74%30.04 "HgN/A
9:55 PM82 °FPartly cloudy.12 mph74%30.04 "HgN/A
8:55 PM82 °FBroken clouds.10 mph74%30.01 "HgN/A
7:55 PM82 °FPartly sunny.9 mph74%30.01 "HgN/A
6:55 PM82 °FBroken clouds.10 mph74%30.01 "HgN/A
5:55 PM84 °FBroken clouds.12 mph66%30.01 "HgN/A
4:55 PM84 °FBroken clouds.10 mph66%30.01 "HgN/A
3:55 PM84 °FBroken clouds.12 mph66%30.01 "HgN/A
2:55 PM84 °FPartly sunny.12 mph70%30.04 "HgN/A
1:55 PM86 °FScattered showers. Broken clouds.15 mph66%30.04 "HgN/A
12:55 PM84 °FScattered showers. Broken clouds.12 mph74%30.04 "HgN/A
11:55 AM84 °FTornado. Broken clouds.13 mph74%30.04 "HgN/A
Weather by CustomWeather, © 2016

See weather overviewHow to use our weather pages